Location: Bottenau
(48.5138°N, 8.0462°E)
Time: 04:28:59
(UTC+00:00)

Cosmos 2219 - Pass Details

Date: 18 April 2021
Orbit: 834 x 859 km, 71.1° (Epoch: 09 May)

Event Time Altitude Azimuth Distance (km) Brightness Sun altitude
Exits shadow 21:47:34 12° 234° (SW) 2,278 5.3 -26.4°
Maximum altitude 21:52:29 46° 306° (NW) 1,113 4.1 -26.8°
Drops below altitude 10° 21:57:54 10° 19° (NNE) 2,460 6.2 -27.2°
Sets 22:00:28 0° 26° (NNE) 3,401 6.9 -27.3°
